Overview Statistics Trail Chart Weather Telemetry Raw packets
 

This is the latest recevied weather packets stored in our database for station/object W8LMG. If no packets are shown the sender has not sent any weather packets the latest 10 day(s).

<< 1 2 3 4 >>
Time Temp. Humidity Pressure Rain* Wind** Luminosity Snow
1788622138 19.44° C 99% 1017 hPa 0 mm - 90 W/m² -
1788621837 18.89° C 99% 1016.7 hPa 0 mm - 50 W/m² -
1788621533 19.44° C 99% 1017 hPa 0 mm - 56 W/m² -
1788621229 19.44° C 99% 1017.2 hPa 0 mm - 54 W/m² -
1788620929 18.89° C 99% 1016.9 hPa 0 mm - 63 W/m² -
1788620623 18.89° C 99% 1017.3 hPa 0 mm - 65 W/m² -
1788620321 18.89° C 99% 1017.7 hPa 0 mm - 50 W/m² -
1788620020 18.89° C 99% 1017.6 hPa 0 mm - 39 W/m² -
1788619719 18.89° C 99% 1017.6 hPa 0 mm - 38 W/m² -
1788619415 18.89° C 99% 1017.8 hPa 0 mm - 22 W/m² -
1788619114 18.89° C 99% 1018 hPa 0 mm - 19 W/m² -
1788618808 18.89° C 99% 1017.9 hPa 1.27 mm - 22 W/m² -
1788618507 18.89° C 99% 1017.7 hPa 1.27 mm - 21 W/m² -
1788618201 18.89° C 99% 1017.8 hPa 0 mm - 15 W/m² -
1788617898 18.89° C 99% 1017.9 hPa 1.78 mm - 13 W/m² -
1788617593 18.89° C 99% 1017.7 hPa 4.83 mm - 8 W/m² -
1788617297 18.89° C 99% 1018 hPa 4.32 mm - 8 W/m² -
1788616988 18.89° C 99% 1018 hPa 4.83 mm - 5 W/m² -
1788616687 18.89° C 99% 1018.1 hPa 3.56 mm - 4 W/m² -
1788616383 18.89° C 99% 1018 hPa 3.05 mm - 3 W/m² -
1788616084 18.89° C 99% 1018.2 hPa 1.27 mm - 4 W/m² -
1788615777 18.89° C 99% 1018.1 hPa 1.78 mm - 4 W/m² -
1788615477 18.89° C 99% 1018.2 hPa 1.78 mm - 3 W/m² -
1788615173 18.89° C 99% 1018.1 hPa 0 mm - 3 W/m² -
1788614871 18.89° C 99% 1018 hPa 0 mm - 3 W/m² -

* Rain latest hour (hover to see other rain measurements)
** Current wind speed in m/s (hover to see current wind gust speed)